Date String (YYYY-MM-DD hh:mm:ss) UTC,Instrument flags,Ambient pressure (hPa),Sample flow (lpm),Bypass flow (lpm),Sample temperature (°C),Ambient temperature (°C),ASC tube jacket temperature (°C),LED temperature (°C),Box temperature (°C),Sample RH (%),Span deviation,Mass concentration (μg/m³),Mass concentration (μg/m³),Mass concentration (μg/m³)
DateTimeUTC,F1_M11,P_M11,Q1_M11,Q2_M11,T1_M11,T2_M11,T3_M11,T4_M11,T5_M11,U1_M11,ZSPAN_M11,X0_M11,X2_M11,X1_M11
2022-02-16 07:00:00,,0816.4,4.98,0.00,26.4,25.5,00.0,35.4,28.2,11.1,0000.0,0014.64,0003.73,0002.35
2022-02-16 07:01:00,,0816.3,5.01,0.00,26.4,25.5,00.0,35.4,28.2,11.2,0000.0,0014.17,0003.74,0002.31
2022-02-16 07:02:00,,0816.3,5.00,0.00,26.4,25.5,00.0,35.4,28.2,11.2,0000.0,0014.47,0003.72,0002.27
2022-02-16 07:03:00,,0816.4,4.99,0.00,26.4,25.5,00.0,35.4,28.2,11.2,0000.0,0014.60,0003.79,0002.28
2022-02-16 07:04:00,,0816.3,5.01,0.00,26.4,25.5,00.0,35.3,28.2,11.2,0000.0,0014.95,0003.76,0002.27
2022-02-16 07:05:00,,0816.3,4.98,0.00,26.4,25.5,00.0,35.4,28.2,11.2,0000.0,0015.95,0003.76,0002.26
2022-02-16 07:06:00,,0816.3,5.01,0.00,26.4,25.5,00.0,35.4,28.2,11.2,0000.0,0016.09,0003.77,0002.27
2022-02-16 07:07:00,,0816.2,5.01,0.00,26.4,25.5,00.0,35.4,28.2,11.2,0000.0,0015.66,0003.76,0002.27
2022-02-16 07:08:00,,0816.2,4.99,0.00,26.4,25.5,00.0,35.3,28.2,11.2,0000.0,0015.81,0003.79,0002.27
2022-02-16 07:09:00,,0816.2,5.00,0.00,26.4,25.5,00.0,35.3,28.2,11.1,0000.0,0015.58,0003.84,0002.27
2022-02-16 07:10:00,,0816.2,5.01,0.00,26.4,25.5,00.0,35.3,28.2,11.1,0000.0,0014.24,0003.84,0002.28
2022-02-16 07:11:00,,0816.2,4.99,0.00,26.4,25.5,00.0,35.3,28.2,11.1,0000.0,0013.33,0003.86,0002.27
2022-02-16 07:12:00,,0816.3,5.01,0.00,26.4,25.5,00.0,35.3,28.2,11.1,0000.0,0013.53,0003.85,0002.27
2022-02-16 07:13:00,,0816.3,5.01,0.00,26.4,25.5,00.0,35.3,28.2,11.1,0000.0,0014.14,0003.85,0002.28
2022-02-16 07:14:00,,0816.4,4.99,0.00,26.4,25.5,00.0,35.3,28.2,11.1,0000.0,0015.20,0003.86,0002.29
2022-02-16 07:15:00,,0816.4,5.00,0.00,26.4,25.5,00.0,35.3,28.2,11.0,0000.0,0014.72,0003.88,0002.30
2022-02-16 07:16:00,,0816.4,5.00,0.00,26.4,25.5,00.0,35.3,28.2,11.0,0000.0,0013.73,0003.90,0002.31
2022-02-16 07:17:00,,0816.4,4.99,0.00,26.4,25.5,00.0,35.3,28.2,11.0,0000.0,0014.98,0003.91,0002.31
2022-02-16 07:18:00,,0816.3,5.00,0.00,26.4,25.5,00.0,35.3,28.2,11.0,0000.0,0015.16,0003.96,0002.33
2022-02-16 07:19:00,,0816.4,5.01,0.00,26.4,25.4,00.0,35.3,28.2,11.1,0000.0,0014.84,0003.94,0002.33
2022-02-16 07:20:00,,0816.3,4.99,0.00,26.4,25.4,00.0,35.3,28.2,11.1,0000.0,0015.60,0003.95,0002.35
2022-02-16 07:21:00,,0816.3,4.99,0.00,26.3,25.4,00.0,35.3,28.2,11.1,0000.0,0015.64,0003.94,0002.35
2022-02-16 07:22:00,,0816.4,5.01,0.00,26.3,25.4,00.0,35.3,28.1,11.1,0000.0,0016.45,0003.95,0002.36
2022-02-16 07:23:00,,0816.4,4.99,0.00,26.3,25.4,00.0,35.3,28.1,11.1,0000.0,0017.14,0003.89,0002.35
2022-02-16 07:24:00,,0816.4,5.00,0.00,26.3,25.4,00.0,35.3,28.1,11.1,0000.0,0017.82,0003.90,0002.35
2022-02-16 07:25:00,,0816.4,5.01,0.00,26.3,25.3,00.0,35.3,28.1,11.1,0000.0,0017.07,0003.88,0002.34
2022-02-16 07:26:00,,0816.4,4.99,0.00,26.3,25.3,00.0,35.3,28.1,11.1,0000.0,0017.70,0003.84,0002.35
2022-02-16 07:27:00,,0816.4,5.00,0.00,26.3,25.3,00.0,35.3,28.1,11.1,0000.0,0017.47,0003.80,0002.36
2022-02-16 07:28:00,,0816.4,5.00,0.00,26.3,25.3,00.0,35.3,28.1,11.2,0000.0,0015.60,0003.78,0002.37
2022-02-16 07:29:00,,0816.4,4.99,0.00,26.3,25.4,00.0,35.3,28.1,11.2,0000.0,0015.53,0003.73,0002.37
2022-02-16 07:30:00,,0816.4,5.01,0.00,26.3,25.4,00.0,35.2,28.1,11.2,0000.0,0015.65,0003.72,0002.37
2022-02-16 07:31:00,,0816.3,4.99,0.00,26.3,25.4,00.0,35.2,28.1,11.2,0000.0,0014.62,0003.69,0002.37
2022-02-16 07:32:00,,0816.3,5.00,0.00,26.3,25.4,00.0,35.2,28.1,11.2,0000.0,0014.92,0003.67,0002.36
2022-02-16 07:33:00,,0816.4,5.01,0.00,26.3,25.4,00.0,35.2,28.1,11.2,0000.0,0014.90,0003.66,0002.36
2022-02-16 07:34:00,,0816.4,5.00,0.00,26.3,25.4,00.0,35.2,28.1,11.2,0000.0,0014.86,0003.67,0002.37
2022-02-16 07:35:00,,0816.4,4.99,0.00,26.3,25.4,00.0,35.2,28.1,11.2,0000.0,0013.37,0003.69,0002.38
2022-02-16 07:36:00,,0816.4,5.01,0.00,26.3,25.4,00.0,35.2,28.1,11.2,0000.0,0013.38,0003.67,0002.38
2022-02-16 07:37:00,,0816.4,5.00,0.00,26.3,25.4,00.0,35.2,28.1,11.2,0000.0,0013.76,0003.66,0002.38
2022-02-16 07:38:00,,0816.4,5.00,0.00,26.2,25.3,00.0,35.2,28.1,11.2,0000.0,0014.16,0003.67,0002.38
2022-02-16 07:39:00,,0816.4,5.00,0.00,26.2,25.3,00.0,35.2,28.1,11.2,0000.0,0014.44,0003.68,0002.36
2022-02-16 07:40:00,,0816.4,5.01,0.00,26.2,25.3,00.0,35.2,28.1,11.2,0000.0,0013.90,0003.68,0002.35
2022-02-16 07:41:00,,0816.4,5.00,0.00,26.2,25.3,00.0,35.2,28.0,11.3,0000.0,0013.48,0003.64,0002.34
2022-02-16 07:42:00,,0816.4,4.99,0.00,26.2,25.2,00.0,35.2,28.0,11.3,0000.0,0014.06,0003.63,0002.35
2022-02-16 07:43:00,,0816.4,5.02,0.00,26.2,25.2,00.0,35.2,27.9,11.3,0000.0,0013.77,0003.61,0002.34
2022-02-16 07:44:00,,0816.4,4.99,0.00,26.2,25.2,00.0,35.2,27.9,11.4,0000.0,0013.45,0003.63,0002.35
2022-02-16 07:45:00,,0816.3,5.00,0.00,26.1,25.1,00.0,35.2,27.9,11.4,0000.0,0012.26,0003.62,0002.36
2022-02-16 07:46:00,,0816.4,5.01,0.00,26.1,25.1,00.0,35.2,27.8,11.4,0000.0,0012.33,0003.56,0002.35
2022-02-16 07:47:00,,0816.4,5.00,0.00,26.1,25.1,00.0,35.1,27.8,11.4,0000.0,0012.87,0003.53,0002.35
2022-02-16 07:48:00,,0816.5,5.00,0.00,26.1,25.1,00.0,35.1,27.8,11.5,0000.0,0011.89,0003.55,0002.35
2022-02-16 07:49:00,,0816.4,4.99,0.00,26.0,25.0,00.0,35.1,27.8,11.5,0000.0,0011.90,0003.57,0002.35
2022-02-16 07:50:00,,0816.4,5.01,0.00,26.0,25.0,00.0,35.1,27.7,11.6,0000.0,0011.74,0003.55,0002.35
2022-02-16 07:51:00,,0816.4,5.00,0.00,26.0,25.0,00.0,35.1,27.7,11.6,0000.0,0012.05,0003.52,0002.35
2022-02-16 07:52:00,,0816.4,4.98,0.00,26.0,24.9,00.0,35.1,27.7,11.6,0000.0,0012.57,0003.57,0002.34
2022-02-16 07:53:00,,0816.4,5.01,0.00,26.0,24.9,00.0,35.0,27.7,11.6,0000.0,0012.49,0003.60,0002.34
2022-02-16 07:54:00,,0816.4,5.00,0.00,25.9,24.9,00.0,35.0,27.7,11.6,0000.0,0012.52,0003.62,0002.33
2022-02-16 07:55:00,,0816.4,4.99,0.00,25.9,24.9,00.0,35.0,27.6,11.7,0000.0,0012.57,0003.65,0002.34
2022-02-16 07:56:00,,0816.4,5.01,0.00,25.9,24.8,00.0,35.0,27.6,11.7,0000.0,0012.73,0003.69,0002.33
2022-02-16 07:57:00,,0816.4,5.01,0.00,25.9,24.8,00.0,35.0,27.6,11.7,0000.0,0012.93,0003.70,0002.32
2022-02-16 07:58:00,,0816.5,4.99,0.00,25.9,24.8,00.0,35.0,27.6,11.7,0000.0,0011.74,0003.71,0002.31
2022-02-16 07:59:00,,0816.5,5.02,0.00,25.8,24.8,00.0,34.9,27.6,11.7,0000.0,0011.63,0003.73,0002.30
